Temp
-6 -6 -6 -6 -6 -5 -4 -4 -5 -6 -7 -7 -5 -5 -6 -4 -5 -5 -6 -5 -4 -4 -4 -3 -3 -3 -3 -3 -3 -3 -3 -3 -3 -3 -4 -4 -3 -4 -4 -4 -4 -4 -5 -5 -5 -5 -5 -5 -5
-6 -6 -6 -6 -6 -5 -4 -5 -5 -6 -8 -8 -7 -5 -6 -6 -7 -6 -6 -5 -4 -4 -4 -4 -3 -3 -3 -3 -3 -3 -4 -3 -3 -3 -4 -4 -4 -4 -4 -4 -4 -4 -5 -5 -5 -5 -5 -5 -5
-6 -6 -6 -6 -6 -5 -4 -5 -5 -6 -8 -8 -7 -6 -6 -6 -6 -7 -5 -5 -6 -5 -5 -4 -4 -3 -3 -3 -3 -3 -4 -4 -4 -4 -4 -4 -4 -4 -4 -4 -4 -4 -5 -5 -5 -5 -5 -5 -6
-7 -7 -6 -5 -5 -5 -5 -6 -7 -8 -7 -8 -8 -7 -7 -5 -7 -6 -6 -6 -6 -5 -5 -4 -4 -4 -3 -3 -3 -3 -3 -4 -4 -4 -4 -4 -4 -4 -4 -4 -4 -5 -5 -5 -5 -5 -5 -5 -5
-7 -7 -6 -6 -5 -5 -6 -6 -6 -8 -8 -8 -8 -8 -7 -5 -7 -7 -5 -6 -6 -6 -6 -5 -4 -4 -4 -4 -3 -3 -3 -4 -4 -4 -4 -4 -4 -4 -4 -4 -4 -4 -5 -5 -5 -5 -5 -5 -6
-7 -8 -7 -6 -6 -6 -6 -6 -8 -8 -8 -9 -9 -8 -7 -5 -7 -7 -7 -6 -6 -6 -6 -6 -5 -4 -4 -4 -4 -3 -3 -4 -4 -4 -4 -4 -4 -4 -4 -4 -4 -4 -5 -5 -5 -5 -6 -5 -5
-8 -8 -7 -7 -7 -6 -6 -7 -8 -9 -9 -9 -9 -9 -9 -5 -7 -7 -7 -7 -5 -6 -6 -6 -5 -5 -5 -4 -4 -4 -4 -4 -4 -4 -4 -4 -4 -4 -5 -4 -4 -5 -5 -5 -5 -6 -5 -5 -6
-9 -9 -8 -8 -7 -7 -8 -7 -7 -9 -9 -9 -9 -9 -9 -6 -6 -7 -7 -7 -6 -6 -7 -7 -6 -5 -5 -4 -4 -4 -4 -4 -4 -5 -5 -5 -5 -5 -5 -5 -5 -5 -5 -5 -5 -6 -5 -6 -6
-11 -10 -9 -8 -8 -8 -8 -10 -9 -8 -10 -10 -10 -10 -9 -6 -6 -7 -6 -7 -7 -7 -7 -8 -7 -6 -5 -5 -4 -4 -4 -4 -5 -5 -5 -5 -5 -5 -5 -5 -5 -5 -5 -5 -6 -6 -6 -6 -7
-12 -11 -10 -10 -10 -9 -9 -10 -10 -11 -11 -9 -9 -10 -9 -8 -6 -7 -7 -6 -7 -7 -6 -7 -7 -7 -6 -5 -5 -5 -5 -5 -5 -4 -5 -5 -5 -5 -5 -5 -5 -6 -6 -6 -6 -6 -7 -7 -8
-13 -12 -12 -11 -11 -10 -10 -11 -11 -11 -11 -8 -9 -9 -9 -9 -7 -7 -7 -6 -7 -7 -6 -7 -7 -6 -7 -6 -5 -5 -5 -5 -5 -5 -5 -5 -5 -6 -6 -5 -6 -6 -6 -7 -7 -7 -7 -8 -8
-13 -13 -12 -12 -12 -11 -11 -11 -12 -11 -11 -10 -9 -11 -10 -8 -7 -7 -7 -7 -7 -6 -6 -7 -7 -6 -6 -6 -6 -5 -5 -5 -5 -5 -6 -6 -6 -6 -6 -6 -6 -7 -7 -7 -7 -7 -8 -8 -9
-14 -13 -14 -13 -13 -12 -12 -11 -11 -12 -12 -11 -11 -11 -11 -7 -8 -8 -7 -7 -7 -6 -6 -6 -6 -6 -6 -6 -6 -6 -6 -5 -6 -6 -6 -6 -6 -6 -6 -6 -6 -6 -7 -6 -7 -7 -8 -8 -8
-14 -14 -14 -14 -13 -13 -13 -11 -11 -12 -13 -11 -12 -11 -11 -8 -8 -8 -7 -7 -7 -7 -6 -6 -6 -6 -6 -6 -6 -6 -6 -6 -6 -6 -7 -6 -6 -6 -6 -6 -6 -6 -6 -7 -7 -8 -8 -9 -9
-15 -15 -14 -14 -14 -13 -13 -13 -11 -11 -11 -12 -12 -11 -11 -10 -8 -8 -7 -7 -7 -7 -6 -6 -7 -6 -6 -6 -6 -6 -6 -6 -7 -7 -7 -6 -6 -6 -6 -6 -6 -7 -7 -7 -8 -7 -8 -8 -8
-15 -16 -15 -15 -14 -14 -14 -12 -12 -11 -11 -10 -11 -9 -10 -9 -8 -8 -7 -7 -7 -7 -6 -7 -7 -6 -6 -6 -6 -6 -6 -7 -7 -7 -7 -6 -6 -6 -6 -7 -6 -7 -7 -8 -7 -7 -6 -7 -8
-16 -16 -16 -15 -15 -14 -14 -13 -11 -12 -12 -11 -10 -10 -10 -9 -9 -7 -7 -6 -7 -7 -7 -7 -7 -7 -7 -7 -7 -7 -7 -7 -7 -7 -7 -7 -7 -7 -7 -6 -7 -7 -7 -7 -7 -6 -6 -6 -8
-18 -18 -18 -17 -16 -15 -14 -13 -13 -12 -12 -11 -11 -10 -9 -9 -8 -7 -7 -6 -7 -7 -7 -7 -7 -7 -7 -7 -7 -7 -7 -7 -8 -8 -8 -7 -7 -6 -7 -7 -7 -7 -7 -7 -7 -7 -6 -7 -7
-19 -18 -18 -17 -17 -18 -14 -14 -13 -13 -12 -12 -11 -11 -10 -10 -9 -6 -7 -8 -7 -7 -7 -7 -7 -8 -7 -8 -7 -8 -8 -8 -8 -8 -8 -7 -7 -6 -6 -6 -6 -6 -7 -7 -7 -7 -7 -7 -7
-19 -18 -18 -17 -18 -17 -18 -18 -15 -13 -12 -12 -11 -11 -10 -10 -9 -7 -8 -8 -7 -7 -7 -7 -7 -8 -8 -8 -8 -8 -7 -8 -8 -8 -8 -7 -7 -6 -6 -6 -6 -6 -7 -7 -7 -7 -7 -7 -7
-18 -19 -18 -18 -18 -17 -17 -17 -17 -15 -14 -13 -12 -12 -11 -10 -8 -7 -9 -8 -8 -7 -7 -8 -8 -8 -9 -8 -8 -8 -8 -8 -8 -8 -7 -7 -6 -6 -6 -6 -6 -7 -7 -7 -7 -7 -7 -7 -8
-19 -19 -19 -19 -18 -18 -17 -17 -17 -16 -15 -13 -12 -12 -11 -10 -9 -8 -8 -8 -7 -7 -8 -8 -8 -8 -8 -8 -8 -8 -8 -8 -8 -8 -7 -7 -6 -6 -7 -7 -7 -7 -7 -7 -7 -7 -7 -8 -8
-19 -19 -19 -19 -19 -18 -17 -18 -16 -16 -14 -13 -11 -11 -10 -10 -9 -8 -9 -10 -8 -8 -8 -8 -8 -8 -8 -8 -8 -8 -8 -8 -7 -7 -7 -7 -6 -7 -7 -7 -7 -7 -7 -7 -7 -7 -8 -8 -9
-20 -19 -19 -19 -18 -19 -17 -17 -16 -16 -14 -12 -12 -11 -11 -10 -8 -8 -10 -9 -9 -8 -8 -9 -9 -9 -8 -8 -9 -8 -8 -8 -8 -7 -7 -7 -7 -7 -7 -7 -8 -7 -7 -7 -7 -8 -8 -9 -9
-21 -20 -20 -20 -19 -18 -17 -17 -16 -15 -13 -12 -11 -11 -11 -10 -9 -8 -9 -8 -9 -9 -9 -9 -8 -8 -8 -8 -9 -8 -8 -8 -8 -8 -7 -7 -7 -7 -7 -8 -8 -7 -7 -7 -8 -8 -9 -9 -9
-21 -21 -19 -19 -18 -18 -17 -17 -14 -15 -13 -12 -12 -11 -11 -9 -8 -8 -9 -9 -9 -9 -8 -8 -9 -8 -9 -8 -8 -9 -8 -8 -7 -7 -7 -7 -7 -7 -8 -8 -8 -8 -8 -8 -8 -8 -8 -9 -9
-20 -19 -20 -19 -18 -17 -17 -16 -15 -15 -14 -13 -12 -12 -11 -10 -9 -9 -9 -9 -10 -9 -9 -9 -8 -8 -8 -8 -9 -9 -9 -8 -8 -7 -7 -7 -7 -7 -8 -8 -8 -8 -8 -8 -8 -9 -9 -9 -9
-20 -19 -19 -19 -18 -16 -16 -15 -15 -14 -14 -14 -12 -11 -11 -11 -9 -9 -8 -8 -9 -8 -8 -9 -9 -8 -9 -9 -9 -9 -9 -8 -8 -8 -8 -8 -8 -8 -8 -8 -8 -8 -8 -8 -9 -9 -9 -9 -9
-20 -20 -19 -19 -18 -17 -17 -15 -15 -15 -13 -14 -13 -11 -11 -11 -10 -7 -7 -8 -9 -10 -9 -8 -8 -9 -9 -9 -10 -9 -8 -8 -8 -8 -8 -8 -8 -8 -8 -8 -8 -8 -8 -8 -9 -9 -9 -9 -10
-20 -20 -20 -19 -18 -17 -18 -16 -16 -15 -14 -12 -14 -12 -11 -11 -10 -7 -8 -8 -8 -11 -10 -9 -9 -9 -10 -10 -9 -8 -9 -8 -8 -8 -8 -8 -8 -8 -8 -8 -8 -8 -8 -9 -9 -9 -10 -10 -10
Height
5850 5852 5854 5856 5859 5857 5865 5871 5877 5879 5887 5872 5871 5879 5878 5863 5871 5876 5880 5884 5886 5891 5897 5898 5899 5901 5903 5906 5908 5909 5911 5912 5914 5915 5915 5915 5915 5916 5916 5916 5915 5914 5913 5913 5911 5910 5909 5908 5906
5843 5845 5847 5848 5848 5851 5861 5869 5871 5879 5883 5877 5868 5881 5882 5867 5876 5871 5873 5887 5887 5890 5893 5897 5898 5899 5902 5904 5906 5908 5910 5911 5913 5914 5915 5915 5916 5916 5916 5916 5915 5914 5914 5913 5911 5910 5910 5908 5906
5835 5837 5839 5839 5840 5844 5858 5864 5870 5875 5882 5873 5874 5878 5878 5870 5879 5877 5879 5882 5886 5889 5891 5894 5897 5898 5900 5903 5904 5906 5908 5910 5912 5913 5914 5915 5915 5916 5916 5915 5915 5915 5914 5913 5911 5911 5910 5908 5906
5826 5828 5830 5830 5835 5845 5853 5860 5864 5876 5881 5868 5869 5874 5870 5877 5871 5878 5879 5879 5883 5886 5890 5892 5894 5896 5899 5902 5904 5905 5907 5909 5910 5912 5913 5914 5914 5915 5916 5916 5915 5914 5914 5913 5911 5910 5909 5908 5905
5816 5818 5819 5822 5831 5840 5847 5856 5860 5863 5875 5867 5864 5871 5866 5873 5874 5874 5875 5878 5878 5882 5888 5890 5892 5894 5897 5900 5903 5904 5906 5908 5909 5910 5912 5913 5913 5914 5915 5915 5915 5915 5914 5912 5911 5910 5908 5906 5904
5804 5807 5809 5815 5826 5833 5840 5849 5857 5857 5861 5866 5860 5867 5856 5872 5868 5872 5873 5876 5880 5878 5884 5888 5890 5892 5895 5898 5902 5903 5904 5906 5907 5909 5910 5911 5913 5913 5914 5915 5915 5914 5912 5911 5910 5909 5907 5905 5902
5792 5796 5800 5808 5817 5824 5832 5840 5845 5850 5855 5859 5864 5858 5850 5863 5865 5866 5870 5870 5875 5877 5880 5885 5888 5890 5893 5896 5900 5902 5903 5904 5906 5908 5908 5910 5912 5913 5914 5915 5914 5913 5911 5910 5909 5907 5905 5903 5901
5780 5783 5786 5796 5805 5815 5825 5832 5839 5840 5848 5854 5861 5857 5844 5851 5864 5862 5865 5867 5870 5872 5876 5881 5885 5889 5891 5894 5897 5900 5902 5902 5903 5906 5907 5909 5911 5913 5914 5914 5914 5912 5911 5909 5907 5905 5904 5902 5899
5767 5769 5772 5786 5796 5805 5815 5821 5829 5835 5837 5842 5851 5844 5840 5839 5856 5859 5862 5865 5868 5871 5875 5878 5883 5887 5889 5891 5893 5895 5898 5901 5902 5904 5906 5908 5910 5912 5912 5913 5912 5911 5909 5908 5906 5904 5901 5899 5896
5753 5756 5765 5778 5786 5794 5804 5812 5822 5827 5825 5835 5841 5830 5835 5839 5850 5855 5860 5864 5866 5869 5873 5876 5880 5884 5887 5889 5890 5892 5895 5897 5900 5902 5904 5907 5908 5910 5910 5911 5910 5908 5907 5907 5903 5901 5898 5895 5893
5743 5745 5756 5764 5772 5782 5789 5799 5810 5819 5816 5824 5833 5825 5827 5836 5846 5851 5856 5861 5864 5867 5871 5874 5877 5881 5882 5886 5887 5889 5892 5896 5899 5901 5903 5905 5907 5907 5908 5908 5908 5906 5905 5903 5900 5897 5894 5890 5887
5733 5739 5742 5750 5757 5765 5773 5783 5790 5803 5806 5815 5824 5818 5819 5832 5839 5844 5849 5855 5861 5865 5868 5871 5874 5877 5879 5882 5884 5887 5890 5894 5897 5900 5902 5903 5904 5905 5906 5905 5905 5902 5902 5898 5896 5893 5890 5886 5882
5728 5731 5728 5734 5742 5751 5760 5767 5778 5787 5794 5803 5813 5818 5807 5827 5831 5836 5841 5848 5854 5859 5864 5868 5870 5874 5876 5880 5883 5886 5890 5894 5897 5899 5900 5901 5902 5903 5902 5901 5900 5898 5895 5894 5891 5888 5884 5880 5876
5718 5717 5717 5723 5729 5740 5746 5759 5765 5774 5779 5796 5799 5804 5809 5810 5825 5830 5833 5841 5847 5854 5859 5863 5867 5872 5873 5878 5880 5885 5889 5892 5894 5897 5897 5898 5899 5899 5899 5898 5896 5893 5891 5889 5886 5882 5877 5874 5870
5708 5707 5709 5713 5720 5726 5735 5742 5751 5767 5771 5781 5788 5796 5802 5803 5819 5824 5830 5835 5841 5849 5854 5859 5863 5867 5871 5875 5878 5883 5887 5889 5891 5893 5894 5895 5896 5896 5896 5895 5893 5891 5888 5885 5881 5875 5870 5867 5863
5697 5698 5700 5707 5709 5718 5721 5729 5746 5758 5761 5772 5779 5787 5795 5801 5804 5816 5821 5835 5838 5843 5850 5855 5860 5864 5868 5871 5876 5880 5883 5885 5888 5889 5891 5894 5894 5893 5893 5891 5889 5887 5884 5880 5877 5871 5864 5861 5858
5689 5690 5692 5699 5701 5704 5708 5720 5735 5746 5753 5763 5772 5777 5788 5791 5805 5810 5811 5823 5832 5837 5845 5852 5857 5861 5864 5868 5873 5877 5879 5882 5885 5887 5889 5891 5890 5889 5888 5887 5885 5882 5879 5876 5871 5865 5858 5857 5854
5682 5678 5684 5687 5693 5692 5700 5708 5719 5731 5743 5754 5764 5769 5780 5788 5801 5776 5798 5812 5823 5830 5839 5846 5852 5857 5862 5867 5870 5874 5878 5880 5880 5884 5886 5887 5885 5885 5884 5882 5879 5877 5874 5871 5868 5864 5860 5856 5852
5666 5671 5676 5679 5685 5688 5690 5694 5706 5720 5731 5743 5755 5763 5772 5781 5790 5798 5781 5799 5813 5821 5832 5841 5848 5854 5860 5864 5868 5869 5874 5873 5878 5880 5882 5882 5881 5881 5878 5876 5873 5871 5869 5866 5864 5861 5857 5855 5849
5659 5664 5668 5673 5678 5676 5682 5686 5695 5709 5722 5736 5747 5754 5765 5774 5785 5790 5757 5793 5811 5815 5827 5837 5844 5850 5855 5859 5864 5866 5869 5869 5873 5876 5877 5877 5877 5876 5873 5870 5869 5865 5865 5862 5861 5858 5854 5851 5845
5655 5659 5662 5666 5666 5673 5672 5680 5688 5699 5713 5725 5737 5747 5760 5767 5777 5786 5793 5802 5809 5808 5821 5832 5840 5846 5851 5855 5859 5862 5865 5867 5870 5872 5873 5873 5873 5871 5868 5865 5865 5862 5861 5859 5857 5854 5851 5848 5843
5652 5656 5657 5661 5663 5664 5671 5674 5679 5690 5700 5715 5726 5738 5749 5760 5770 5784 5789 5791 5799 5808 5818 5826 5834 5841 5845 5849 5854 5858 5861 5863 5867 5868 5869 5870 5869 5866 5863 5862 5860 5859 5858 5856 5854 5850 5846 5843 5840
5648 5647 5650 5654 5658 5661 5663 5668 5675 5683 5694 5708 5720 5733 5745 5757 5767 5777 5774 5788 5799 5805 5815 5821 5828 5834 5840 5844 5848 5852 5857 5862 5863 5865 5864 5865 5863 5862 5861 5859 5858 5856 5855 5853 5850 5847 5842 5839 5835
5643 5644 5644 5649 5652 5654 5659 5660 5671 5676 5688 5700 5714 5727 5739 5749 5760 5771 5778 5790 5793 5800 5808 5816 5824 5831 5836 5839 5843 5848 5854 5858 5859 5861 5861 5861 5860 5858 5858 5856 5856 5854 5853 5850 5847 5843 5839 5836 5831
5640 5641 5645 5649 5649 5650 5657 5658 5666 5679 5688 5699 5711 5721 5733 5744 5752 5768 5774 5779 5787 5793 5803 5811 5821 5827 5833 5838 5841 5846 5850 5851 5853 5855 5855 5855 5856 5854 5854 5854 5853 5852 5849 5846 5844 5840 5836 5831 5827
5636 5641 5642 5645 5649 5652 5655 5657 5668 5678 5688 5696 5708 5721 5729 5742 5750 5762 5768 5774 5782 5792 5799 5807 5813 5824 5830 5834 5838 5842 5844 5847 5849 5850 5850 5852 5852 5851 5851 5851 5850 5847 5845 5843 5840 5836 5832 5828 5824
5631 5634 5640 5639 5637 5646 5649 5659 5667 5674 5679 5688 5700 5710 5723 5736 5746 5754 5760 5767 5773 5785 5787 5805 5806 5815 5823 5827 5831 5837 5840 5842 5844 5845 5847 5848 5848 5847 5847 5847 5845 5843 5841 5838 5835 5832 5829 5825 5821
5628 5633 5637 5639 5640 5645 5650 5660 5666 5670 5676 5685 5695 5707 5719 5729 5737 5744 5755 5759 5760 5779 5787 5796 5803 5811 5814 5823 5829 5833 5836 5838 5839 5841 5843 5844 5845 5844 5844 5843 5842 5840 5837 5834 5832 5829 5826 5822 5818
5627 5626 5633 5636 5636 5638 5640 5658 5669 5673 5678 5684 5694 5704 5715 5725 5732 5747 5759 5751 5704 5767 5769 5781 5794 5801 5807 5818 5824 5829 5831 5834 5835 5839 5841 5841 5841 5840 5840 5839 5837 5836 5834 5831 5829 5826 5822 5819 5814
5626 5628 5631 5633 5637 5637 5639 5643 5653 5667 5679 5684 5695 5705 5714 5723 5731 5747 5751 5744 5704 5751 5763 5776 5787 5797 5801 5814 5820 5824 5828 5828 5832 5835 5836 5836 5836 5835 5835 5835 5834 5833 5830 5829 5826 5822 5819 5815 5811
Wind_Speed
33 35 37 40 43 43 35 30 25 23 15 30 32 30 25 13 23 32 25 24 23 22 21 22 20 17 16 16 17 18 15 12 10 9 8 8 5 5 4 5 6 6 7 8 10 10 12 14 16
37 37 39 41 48 48 38 31 31 26 8 26 38 29 16 37 29 26 13 20 22 22 22 23 22 20 17 17 19 20 16 14 12 11 11 9 7 7 7 7 6 7 9 11 12 13 14 16 17
41 41 43 46 48 50 41 35 31 26 18 37 38 32 33 37 28 24 24 25 23 21 21 24 23 21 18 20 20 21 18 16 14 13 13 11 10 9 9 9 9 9 11 13 15 17 18 19 19
46 46 47 49 47 44 42 39 24 14 23 41 42 30 36 28 28 25 23 26 28 17 21 24 24 22 20 20 20 20 19 17 16 15 14 13 12 11 11 12 11 11 13 15 17 19 20 22 22
49 52 53 51 46 42 40 39 32 29 23 37 40 31 32 31 28 27 24 24 25 18 18 23 25 23 22 20 21 20 20 19 17 17 15 15 14 12 13 14 12 14 16 17 19 20 22 23 25
54 53 57 55 48 44 41 38 35 34 27 33 36 29 37 28 32 28 29 26 29 23 25 19 24 23 22 20 20 21 21 20 18 18 16 16 15 14 15 15 14 16 17 19 21 22 24 26 28
59 57 57 55 53 48 46 40 47 34 20 29 20 29 39 36 31 30 26 24 21 23 30 24 22 25 22 22 20 20 21 20 19 19 17 16 17 16 17 16 16 17 19 22 23 25 27 30 30
59 61 62 58 56 53 45 46 43 46 27 27 23 29 41 41 33 33 30 27 26 30 34 30 24 26 23 22 20 20 20 20 20 19 18 17 18 17 17 18 18 20 22 24 26 28 32 34 33
57 63 68 62 57 56 48 30 35 48 42 39 28 33 42 49 38 37 33 29 26 23 19 26 24 25 25 25 24 23 23 22 21 20 19 18 18 16 17 19 19 21 23 25 28 32 34 34 35
59 63 65 61 58 54 52 40 23 30 45 51 31 39 50 48 37 39 36 32 28 24 21 27 20 20 28 27 27 27 26 25 23 21 20 17 16 15 17 18 19 20 23 25 29 32 34 34 36
46 62 59 60 59 58 53 47 33 30 44 49 41 45 46 51 40 36 38 35 32 28 24 26 20 23 23 30 30 28 27 24 23 22 18 15 16 15 16 18 18 20 24 25 29 34 36 39 39
45 47 54 61 60 59 60 51 45 34 48 42 49 40 44 46 42 40 40 39 36 31 29 28 30 27 26 31 31 31 28 26 22 20 16 14 14 15 17 17 16 22 25 29 32 36 38 41 43
42 46 48 50 62 62 64 61 58 42 51 43 42 47 42 53 44 42 44 41 37 33 33 28 28 34 31 30 30 30 25 22 18 17 14 13 13 16 15 16 19 23 27 32 39 40 43 45 48
37 48 55 49 51 64 63 65 63 57 44 42 38 49 47 61 50 44 45 41 38 37 35 35 28 31 32 32 28 26 25 19 15 15 12 14 14 15 16 17 23 27 32 37 41 43 47 48 49
33 42 51 54 48 51 66 65 71 65 63 48 47 52 54 42 54 46 42 42 38 36 35 34 30 29 27 25 27 25 23 18 16 14 15 16 15 15 18 21 28 32 34 37 41 44 49 50 42
35 37 44 47 51 44 60 73 68 66 67 55 54 57 56 51 45 47 47 43 38 38 36 33 29 27 23 23 26 22 21 20 17 17 16 17 16 17 20 24 30 34 36 38 35 39 45 44 22
38 35 37 41 44 46 48 67 72 66 64 59 58 58 55 58 51 55 56 45 40 42 38 36 31 29 26 25 17 18 20 19 19 16 19 17 17 18 23 26 33 32 34 37 34 40 37 17 17
25 27 25 29 33 46 49 60 71 68 65 58 56 58 55 52 53 51 52 50 44 41 39 38 36 32 28 21 16 26 28 28 25 20 17 16 19 23 28 29 31 36 35 26 22 19 18 18 23
35 26 31 27 26 26 49 54 65 70 66 61 55 57 56 54 57 63 48 53 46 41 39 40 39 35 33 26 25 23 28 35 27 16 16 19 23 28 31 29 31 28 21 14 16 18 20 23 25
24 34 30 14 25 30 25 33 57 65 66 60 56 58 57 55 58 63 44 38 43 40 39 36 37 34 35 29 25 23 19 16 16 12 18 23 26 28 30 30 30 19 13 14 16 19 20 20 22
23 34 25 27 29 33 32 35 39 56 60 57 58 56 52 55 59 59 51 49 46 42 39 36 36 34 25 24 27 29 31 21 19 17 23 23 26 29 28 27 25 20 11 12 16 18 19 20 21
28 29 28 30 29 27 37 35 33 50 56 64 61 59 58 57 59 53 53 54 49 46 42 40 36 32 28 29 32 33 27 25 21 24 26 25 29 26 25 24 16 10 10 11 14 18 19 20 24
14 18 19 28 31 36 32 36 27 47 60 62 62 58 58 55 55 56 55 55 54 52 45 45 39 35 30 28 39 30 26 27 27 26 24 28 25 22 19 13 9 9 10 13 14 17 19 22 23
19 29 27 28 30 28 25 24 42 36 61 66 60 58 57 56 57 57 57 51 48 48 54 48 38 33 31 32 20 23 30 26 26 28 22 19 19 16 15 9 8 10 12 12 16 18 20 22 24
18 19 18 13 19 25 28 23 27 27 49 60 59 58 59 60 58 55 60 59 53 52 51 59 42 37 37 28 27 28 25 21 24 23 18 15 16 13 10 9 10 12 13 15 18 20 23 23 25
13 15 16 15 16 16 18 25 35 23 24 50 53 53 58 56 55 54 61 62 62 55 53 69 42 35 32 34 35 25 26 18 22 19 18 16 15 10 9 9 11 12 14 17 20 23 25 23 24
20 21 18 19 23 23 18 22 33 21 29 35 54 54 56 55 55 55 62 64 61 45 47 31 36 31 39 43 21 20 20 21 18 16 15 16 17 11 9 11 11 12 14 18 22 24 24 24 25
24 20 24 13 20 13 9 20 27 34 21 26 51 51 54 57 57 60 56 54 61 59 36 35 37 37 44 21 25 12 19 18 16 15 17 19 16 12 12 11 12 12 15 19 23 24 24 24 24
13 17 26 23 20 11 9 24 22 31 33 30 46 50 55 54 58 59 51 56 67 65 44 44 39 38 32 22 23 11 17 16 16 18 19 19 15 13 12 11 13 13 16 21 24 24 24 24 24
8 18 21 28 26 23 11 35 27 22 37 45 38 45 53 54 59 58 56 58 50 30 41 43 46 39 19 26 22 18 18 15 17 18 18 16 14 12 12 13 14 15 18 22 25 26 25 23 24
Wind_Direction
236 233 234 232 231 230 226 221 219 181 238 268 260 250 205 276 234 228 204 198 191 197 212 216 219 218 221 211 210 207 210 216 222 228 230 236 254 270 292 315 335 341 338 338 338 342 345 351 353
238 234 234 234 231 230 222 217 218 208 225 235 255 235 250 255 255 264 226 204 195 197 205 216 216 221 223 219 214 211 210 218 225 237 243 248 253 268 288 301 312 322 324 329 328 331 339 344 344
239 237 233 233 234 230 224 220 221 211 243 261 261 246 240 244 245 257 266 211 206 198 206 212 217 221 220 222 215 216 210 218 227 237 246 253 257 268 285 291 304 312 317 319 323 332 337 338 338
240 239 237 233 233 233 228 223 199 241 220 256 258 250 237 244 252 246 245 203 207 206 212 214 215 217 220 222 221 219 216 221 231 242 251 256 263 269 284 291 301 308 312 317 324 329 333 331 329
240 238 238 236 232 231 227 220 206 192 227 257 260 246 248 233 243 246 240 227 198 201 216 217 219 216 219 224 226 222 221 223 232 241 252 258 266 274 282 288 300 311 310 317 318 325 325 325 325
241 239 237 236 234 230 227 217 198 192 193 233 263 246 243 223 237 240 249 244 223 192 213 226 225 219 220 224 229 225 223 224 232 243 251 261 269 274 281 292 304 306 310 313 318 323 321 322 322
240 239 239 237 234 230 227 222 199 196 219 209 250 261 256 229 230 239 242 252 235 218 200 217 231 224 222 224 229 232 227 227 234 246 254 266 274 282 288 298 301 308 315 315 320 317 321 323 321
240 237 237 234 231 229 228 229 222 203 214 207 202 251 258 240 214 232 238 238 245 264 197 209 223 225 224 228 227 233 233 232 236 245 256 267 276 289 298 305 309 315 318 317 320 319 326 325 322
239 236 235 233 231 229 221 215 237 225 210 200 188 226 234 237 214 224 232 238 240 250 207 211 216 232 226 228 227 226 227 235 238 246 255 265 278 294 301 308 315 318 316 321 321 323 324 320 310
237 238 237 234 232 231 224 212 197 243 230 219 184 239 236 238 227 222 226 232 236 239 239 227 216 238 236 231 231 229 230 230 240 247 254 268 284 296 302 308 311 317 326 328 320 319 314 308 304
243 237 236 234 232 228 225 210 191 220 238 223 201 236 237 236 233 229 227 229 233 235 233 227 229 247 237 236 232 231 232 234 241 250 259 272 287 294 303 306 313 322 324 315 315 312 309 305 301
248 247 240 233 230 223 224 213 196 210 237 225 193 238 243 232 231 227 225 223 226 234 236 229 230 233 242 235 234 235 235 238 243 256 268 279 283 293 299 305 312 313 309 310 313 309 307 304 299
240 242 243 238 227 225 224 218 205 200 232 210 205 205 243 226 231 227 226 224 220 227 235 242 236 231 238 238 234 236 241 240 250 263 269 277 283 285 291 297 307 305 310 316 316 315 314 307 309
252 239 239 239 236 223 226 223 216 200 206 201 213 214 222 232 221 226 229 226 223 222 228 232 239 225 235 237 241 243 242 240 248 257 258 268 275 277 285 297 304 310 317 318 318 313 311 307 307
260 247 241 239 235 228 224 223 222 215 214 184 213 213 210 247 220 222 229 226 226 224 225 227 229 227 230 237 242 242 241 239 240 245 256 267 270 287 297 307 318 314 310 313 315 315 308 311 315
256 255 244 240 238 234 227 221 220 220 222 211 206 217 213 214 218 218 223 210 221 223 226 230 231 229 219 230 233 234 231 235 238 244 261 272 284 296 307 313 310 306 309 310 315 320 314 312 301
255 259 249 243 247 247 235 227 219 219 222 222 219 223 215 221 213 227 223 221 219 224 227 228 226 217 216 221 229 234 234 239 246 256 263 277 291 299 301 306 310 309 309 317 315 307 311 319 320
241 239 247 248 248 254 242 231 221 220 218 223 219 224 220 218 213 224 220 220 217 222 225 223 218 217 218 221 238 233 241 240 242 248 268 280 289 295 304 305 304 311 311 311 322 327 335 330 323
219 228 231 238 235 257 243 233 221 218 218 213 216 218 218 215 214 215 234 206 211 214 220 223 220 217 224 236 232 227 234 259 232 249 269 282 292 300 304 307 315 309 303 293 315 316 317 324 320
231 222 208 233 209 214 225 238 217 214 218 213 212 216 216 213 213 214 221 202 210 211 217 222 223 228 230 242 237 237 242 264 274 268 271 288 299 305 304 311 313 302 295 303 303 310 320 324 323
227 220 215 217 226 221 201 218 225 209 214 204 210 213 214 212 215 214 217 213 211 212 216 222 225 233 241 239 232 239 247 251 260 263 275 290 300 301 301 313 306 294 302 305 309 315 322 327 334
229 239 238 236 239 233 202 207 204 214 199 208 203 204 208 210 213 212 211 213 213 214 219 224 229 230 232 232 236 243 242 244 255 265 282 291 293 302 307 307 296 296 309 311 310 315 320 333 328
233 208 214 218 216 237 197 218 205 212 206 204 208 205 209 208 210 209 215 202 215 215 219 226 228 225 230 241 243 233 237 245 262 276 283 285 290 301 303 294 284 304 303 303 313 308 319 329 326
266 217 215 224 226 233 209 208 205 217 207 203 201 204 204 207 208 207 214 215 216 217 219 222 223 225 231 231 239 239 244 255 271 273 285 288 300 303 299 278 287 293 299 308 308 318 323 323 328
262 237 220 238 228 235 204 210 200 213 207 208 204 200 203 206 209 205 209 214 214 222 224 223 216 223 232 236 235 235 255 274 279 282 277 290 293 297 273 278 297 296 303 313 314 319 321 324 330
213 239 177 222 212 228 206 218 166 187 211 211 203 206 204 206 208 204 210 217 218 218 225 211 208 214 238 235 241 249 247 266 273 271 280 292 290 281 269 283 294 302 312 314 319 321 320 323 324
243 223 232 256 227 190 197 203 171 188 180 204 203 203 203 204 206 208 210 216 219 214 217 207 204 221 224 235 235 251 243 255 261 264 280 284 279 266 262 274 297 315 316 319 319 316 318 321 324
209 202 215 241 210 179 194 191 190 184 186 188 197 199 198 203 207 208 213 218 220 215 209 206 212 217 228 230 226 238 251 253 268 278 277 274 267 248 251 279 301 316 319 318 314 315 315 320 323
227 230 204 215 213 225 208 177 185 203 194 170 196 197 197 202 209 202 206 226 215 217 216 217 226 227 209 217 227 244 261 253 261 263 266 261 246 240 257 282 301 308 318 314 312 310 315 320 324
222 216 215 220 209 189 236 157 176 179 209 196 178 200 199 203 205 200 208 213 171 233 213 213 214 226 206 226 238 253 259 251 253 259 261 254 243 247 262 284 303 307 308 309 312 312 312 319 326